| time (UTC) | temp C | wind direction | speed KPH | gust KPH | rain 1hr cm | rain 24hr cm | rain mn cm | humidity % | barometer mb |
| 20260510120019 | 10 | 151 | 0.0 | 1.6 | 0.00 | 0.81 | 0.00 | 99 | 1012.2 |
| 20260510114520 | 10 | 151 | 0.0 | 1.6 | 0.00 | 0.81 | 0.00 | 99 | 1011.9 |
| 20260510113014 | 10 | 151 | 0.0 | 0.0 | 0.00 | 0.84 | 0.00 | 99 | 1011.8 |
| 20260510111520 | 10 | 151 | 1.6 | 6.4 | 0.00 | 0.84 | 0.00 | 100 | 1011.8 |
| 20260510110005 | 9 | 156 | 0.0 | 0.0 | 0.00 | 0.84 | 0.00 | 99 | 1011.7 |
| 20260510104507 | 9 | 156 | 0.0 | 0.0 | 0.00 | 0.84 | 0.00 | 99 | 1011.4 |
| 20260510103006 | 9 | 156 | 0.0 | 0.0 | 0.00 | 0.84 | 0.00 | 99 | 1011.3 |
| 20260510101516 | 9 | 156 | 0.0 | 0.0 | 0.00 | 0.84 | 0.00 | 99 | 1011.0 |
| 20260510100004 | 9 | 156 | 0.0 | 0.0 | 0.00 | 0.84 | 0.00 | 99 | 1011.2 |
| 20260510094507 | 9 | 156 | 0.0 | 0.0 | 0.00 | 0.84 | 0.00 | 99 | 1010.9 |
| 20260510093008 | 8 | 156 | 0.0 | 0.0 | 0.00 | 0.84 | 0.00 | 99 | 1010.9 |
| 20260510091511 | 8 | 156 | 0.0 | 0.0 | 0.00 | 0.84 | 0.00 | 99 | 1010.8 |
| 20260510090016 | 8 | 156 | 0.0 | 3.2 | 0.00 | 0.84 | 0.00 | 99 | 1010.9 |
| 20260510084525 | 8 | 155 | 0.0 | 4.8 | 0.00 | 0.84 | 0.00 | 99 | 1010.7 |
| 20260510083013 | 8 | 157 | 1.6 | 6.4 | 0.00 | 0.84 | 0.00 | 99 | 1011.0 |
| 20260510081510 | 9 | 149 | 0.0 | 0.0 | 0.00 | 0.84 | 0.00 | 99 | 1011.2 |
| 20260510080015 | 9 | 179 | 0.0 | 0.0 | 0.00 | 0.84 | 0.00 | 99 | 1011.1 |
| 20260510074523 | 9 | 253 | 0.0 | 0.0 | 0.00 | 0.84 | 0.00 | 99 | 1011.3 |
| 20260510073022 | 9 | 253 | 0.0 | 0.0 | 0.00 | 0.86 | 0.00 | 99 | 1011.3 |
| 20260510071504 | 9 | 254 | 0.0 | 0.0 | 0.00 | 0.86 | 0.00 | 99 | 1011.6 |
| 20260510070008 | 9 | 303 | 0.0 | 0.0 | 0.00 | 0.91 | 0.00 | 99 | 1011.6 |
| 20260510064513 | 9 | 317 | 0.0 | 0.0 | 0.00 | 0.97 | 0.00 | 99 | 1011.7 |
| 20260510063018 | 9 | 192 | 0.0 | 0.0 | 0.00 | 1.02 | 0.00 | 98 | 1011.2 |
| 20260510061523 | 10 | 145 | 0.0 | 0.0 | 0.00 | 1.02 | 0.00 | 99 | 1011.1 |
| 20260510060007 | 10 | 146 | 0.0 | 0.0 | 0.00 | 1.04 | 0.00 | 99 | 1011.3 |
| 20260510054512 | 9 | 146 | 0.0 | 0.0 | 0.00 | 1.04 | 0.00 | 99 | 1011.3 |
| 20260510053015 | 9 | 146 | 0.0 | 0.0 | 0.00 | 1.04 | 0.00 | 99 | 1011.3 |
| 20260510051522 | 8 | 146 | 0.0 | 0.0 | 0.00 | 1.04 | 0.00 | 98 | 1011.2 |
| 20260510050026 | 8 | 146 | 0.0 | 0.0 | 0.00 | 1.04 | 0.00 | 99 | 1010.9 |
| 20260510044512 | 8 | 146 | 0.0 | 0.0 | 0.00 | 1.04 | 0.00 | 98 | 1011.2 |
| 20260510043010 | 8 | 146 | 0.0 | 0.0 | 0.00 | 1.04 | 0.00 | 98 | 1011.2 |
| 20260510041514 | 8 | 146 | 0.0 | 0.0 | 0.00 | 1.04 | 0.00 | 98 | 1010.9 |
| 20260510040018 | 8 | 146 | 0.0 | 0.0 | 0.00 | 1.04 | 0.00 | 98 | 1010.9 |
| 20260510034523 | 7 | 146 | 0.0 | 0.0 | 0.00 | 1.04 | 1.04 | 97 | 1010.9 |
| 20260510033006 | 7 | 146 | 0.0 | 0.0 | 0.00 | 1.04 | 1.04 | 97 | 1010.7 |
| 20260510031510 | 7 | 146 | 0.0 | 0.0 | 0.00 | 1.04 | 1.04 | 97 | 1010.8 |
| 20260510030016 | 8 | 146 | 0.0 | 0.0 | 0.00 | 1.04 | 1.04 | 97 | 1010.9 |
| 20260510024523 | 8 | 146 | 0.0 | 0.0 | 0.00 | 1.04 | 1.04 | 96 | 1011.0 |
| 20260510023024 | 8 | 146 | 0.0 | 0.0 | 0.00 | 1.04 | 1.04 | 97 | 1010.9 |
| 20260510021509 | 8 | 146 | 0.0 | 0.0 | 0.00 | 1.04 | 1.04 | 97 | 1010.9 |
| 20260510020012 | 8 | 146 | 0.0 | 0.0 | 0.00 | 1.04 | 1.04 | 96 | 1010.8 |
| 20260510014518 | 9 | 146 | 0.0 | 0.0 | 0.00 | 1.04 | 1.04 | 95 | 1010.7 |
| 20260510013022 | 10 | 146 | 0.0 | 0.0 | 0.00 | 1.04 | 1.04 | 95 | 1010.8 |
| 20260510011524 | 10 | 146 | 0.0 | 0.0 | 0.00 | 1.04 | 1.04 | 96 | 1010.7 |
| 20260510010010 | 10 | 146 | 0.0 | 0.0 | 0.00 | 1.04 | 1.04 | 96 | 1010.4 |
| 20260510004516 | 11 | 146 | 0.0 | 0.0 | 0.00 | 1.04 | 1.04 | 96 | 1010.2 |
| 20260510003019 | 11 | 146 | 0.0 | 0.0 | 0.00 | 1.04 | 1.04 | 96 | 1010.1 |
| 20260510001536 | 11 | 146 | 0.0 | 0.0 | 0.00 | 1.04 | 1.04 | 96 | 1009.8 |
| 20260510000027 | 11 | 146 | 0.0 | 1.6 | 0.00 | 1.04 | 1.04 | 96 | 1009.8 |
| 20260509234530 | 12 | 155 | 0.0 | 0.0 | 0.00 | 1.04 | 1.04 | 96 | 1009.6 |
| 20260509233018 | 12 | 154 | 0.0 | 0.0 | 0.00 | 1.04 | 1.04 | 95 | 1009.4 |
| 20260509231519 | 12 | 165 | 0.0 | 0.0 | 0.00 | 1.04 | 1.04 | 95 | 1009.5 |
| 20260509230027 | 12 | 182 | 0.0 | 4.8 | 0.00 | 1.04 | 1.04 | 95 | 1009.4 |
| 20260509224525 | 12 | 167 | 3.2 | 8.0 | 0.00 | 1.04 | 1.04 | 95 | 1009.6 |
| 20260509223027 | 12 | 150 | 1.6 | 6.4 | 0.03 | 1.04 | 1.04 | 95 | 1009.6 |
| 20260509221518 | 12 | 140 | 0.0 | 4.8 | 0.03 | 1.04 | 1.04 | 96 | 1009.6 |
| 20260509220020 | 12 | 144 | 0.0 | 0.0 | 0.05 | 1.04 | 1.04 | 96 | 1009.6 |
| 20260509214534 | 12 | 144 | 0.0 | 0.0 | 0.08 | 1.04 | 1.04 | 96 | 1009.7 |
| 20260509213027 | 12 | 144 | 0.0 | 3.2 | 0.05 | 1.02 | 1.02 | 96 | 1009.8 |
| 20260509211528 | 12 | 144 | 0.0 | 4.8 | 0.08 | 1.02 | 1.02 | 96 | 1010.1 |
| 20260509210021 | 12 | 154 | 1.6 | 8.0 | 0.10 | 0.99 | 0.99 | 96 | 1010.0 |
| 20260509204530 | 12 | 159 | 0.0 | 0.0 | 0.13 | 0.97 | 0.97 | 96 | 1010.0 |
| 20260509203024 | 12 | 88 | 0.0 | 3.2 | 0.18 | 0.97 | 0.97 | 96 | 1010.2 |
| 20260509201525 | 11 | 325 | 0.0 | 4.8 | 0.20 | 0.94 | 0.94 | 96 | 1010.5 |
| 20260509200037 | 11 | 250 | 0.0 | 3.2 | 0.20 | 0.89 | 0.89 | 96 | 1010.7 |
| 20260509194526 | 11 | 169 | 0.0 | 8.0 | 0.20 | 0.84 | 0.84 | 96 | 1010.9 |
| 20260509193035 | 11 | 150 | 1.6 | 8.0 | 0.20 | 0.79 | 0.79 | 96 | 1011.0 |
| 20260509191524 | 12 | 132 | 0.0 | 4.8 | 0.23 | 0.74 | 0.74 | 96 | 1011.1 |
| 20260509190027 | 11 | 159 | 3.2 | 11.3 | 0.20 | 0.69 | 0.69 | 96 | 1011.2 |
| 20260509184533 | 12 | 159 | 3.2 | 8.0 | 0.18 | 0.64 | 0.64 | 96 | 1011.4 |
| 20260509183020 | 11 | 147 | 1.6 | 14.5 | 0.18 | 0.58 | 0.58 | 96 | 1011.6 |
| 20260509181525 | 11 | 163 | 0.0 | 0.0 | 0.15 | 0.51 | 0.51 | 96 | 1011.6 |
| 20260509180027 | 11 | 160 | 0.0 | 4.8 | 0.13 | 0.48 | 0.48 | 96 | 1011.5 |
| 20260509174528 | 11 | 155 | 0.0 | 1.6 | 0.10 | 0.46 | 0.46 | 96 | 1011.5 |
| 20260509173030 | 11 | 186 | 0.0 | 3.2 | 0.05 | 0.41 | 0.41 | 96 | 1011.4 |
| 20260509171526 | 11 | 186 | 0.0 | 3.2 | 0.03 | 0.36 | 0.36 | 96 | 1011.5 |
| 20260509170008 | 11 | 186 | 0.0 | 4.8 | 0.03 | 0.36 | 0.36 | 96 | 1011.3 |
| 20260509164511 | 11 | 271 | 0.0 | 0.0 | 0.05 | 0.36 | 0.36 | 95 | 1011.2 |
| 20260509163020 | 11 | 271 | 0.0 | 3.2 | 0.08 | 0.36 | 0.36 | 95 | 1011.4 |
| 20260509161502 | 11 | 271 | 0.0 | 0.0 | 0.08 | 0.33 | 0.33 | 95 | 1011.7 |
| 20260509160004 | 10 | 243 | 0.0 | 0.0 | 0.10 | 0.33 | 0.33 | 95 | 1012.0 |
| 20260509154508 | 10 | 243 | 0.0 | 0.0 | 0.08 | 0.30 | 0.30 | 95 | 1012.0 |
| 20260509153011 | 10 | 244 | 0.0 | 0.0 | 0.05 | 0.28 | 0.28 | 95 | 1012.2 |
| 20260509151515 | 10 | 244 | 0.0 | 0.0 | 0.03 | 0.25 | 0.25 | 94 | 1012.5 |
| 20260509150005 | 10 | 227 | 0.0 | 0.0 | 0.00 | 0.23 | 0.23 | 95 | 1012.0 |
| 20260509144513 | 10 | 19 | 0.0 | 1.6 | 0.00 | 0.23 | 0.23 | 95 | 1012.0 |
| 20260509143016 | 9 | 24 | 0.0 | 3.2 | 0.00 | 0.23 | 0.23 | 95 | 1012.0 |
| 20260509141513 | 9 | 5 | 0.0 | 4.8 | 0.00 | 0.23 | 0.23 | 95 | 1012.1 |
| 20260509140018 | 9 | 307 | 3.2 | 8.0 | 0.00 | 0.23 | 0.23 | 95 | 1012.2 |
| 20260509134522 | 8 | 346 | 0.0 | 6.4 | 0.00 | 0.23 | 0.23 | 95 | 1012.2 |
| 20260509133006 | 8 | 9 | 0.0 | 3.2 | 0.00 | 0.23 | 0.23 | 95 | 1012.4 |
| 20260509131515 | 8 | 5 | 1.6 | 4.8 | 0.00 | 0.23 | 0.23 | 95 | 1012.5 |
| 20260509130022 | 8 | 36 | 0.0 | 3.2 | 0.00 | 0.23 | 0.23 | 96 | 1012.4 |
| 20260509124523 | 7 | 36 | 0.0 | 1.6 | 0.00 | 0.23 | 0.23 | 96 | 1012.6 |
| 20260509123026 | 7 | 305 | 0.0 | 6.4 | 0.03 | 0.23 | 0.23 | 95 | 1012.2 |
| 20260509121511 | 7 | 315 | 1.6 | 4.8 | 0.03 | 0.23 | 0.23 | 95 | 1012.1 |